Location: Poughquag
(41.6090°N, 73.6820°W)
Time: 00:27:45
(UTC-04:00)

ISS - Pass Details

Date: 25 May 2019
Orbit: 407 x 418 km, 51.6° (Epoch: 27 June)

Event Time Altitude Azimuth Distance (km) Brightness Sun altitude
Rises 23:33:30 0° 309° (NW) 2,362 1.0 -24.8°
Reaches altitude 10° 23:35:53 10° 324° (NW) 1,500 0.0 -24.9°
Maximum altitude 23:38:39 23° 19° (NNE) 940 -1.5 -25.1°
Enters shadow 23:38:56 23° 28° (NNE) 948 -1.6 -25.1°
